Regional Weather Roundup
Issued by NWS

Home | Current Version | Previous Version | Graphics & Text | Print | Product List | Glossary On
Versions: 1 2 3 4 5 6 7 8 9 10 11 12 13 14 15 16 17 18 19 20 21 22 23 24 25 26 27 28
000
ASUS45 KCYS 250010
RWRWY

WYOMING REGIONAL WEATHER ROUNDUP
NATIONAL WEATHER SERVICE CHEYENNE WY
600 PM MDT FRI MAR 24 2017

NOTE:  "FAIR" INDICATES FEW OR NO CLOUDS BELOW 12,000 FEET
WITH NO SIGNIFICANT WEATHER AND/OR OBSTRUCTIONS TO VISIBILITY.

WYZ001-250100-
YELLOWSTONE NATIONAL PARK

CITY           SKY/WX    TMP DP  RH WIND       PRES   REMARKS
LK YELLOWSTONE   N/A     40  16  37 VRB3      30.06F
6HR MIN TEMP:  34; 6HR MAX TEMP:  43;

W YELLOWSTONE  NOT AVBL

$$
WYZ002>013-054>058-071-098>099-250100-
NORTHERN WYOMING

CITY           SKY/WX    TMP DP  RH WIND       PRES   REMARKS
JACKSON        SUNNY     46  21  36 S16       30.06F
CODY           FAIR      61  18  18 SW8       29.92F
GREYBULL       FAIR      59  27  29 SE16      29.93F
6HR MIN TEMP:  52; 6HR MAX TEMP:  61;

WORLAND        FAIR      60  29  30 S8        29.94F
6HR MIN TEMP:  53; 6HR MAX TEMP:  61;

SHERIDAN       FAIR      62  28  27 SE12      29.89F
6HR MIN TEMP:  56; 6HR MAX TEMP:  63;

BUFFALO        FAIR      59  28  30 S22       29.93F
6HR MIN TEMP:  53; 6HR MAX TEMP:  62;

GILLETTE       FAIR      58  30  34 S16       29.98F
6HR MIN TEMP:  52; 6HR MAX TEMP:  59;

HULETT         FAIR      57  25  28 S5        30.01F
NEWCASTLE      FAIR      57  12  17 S8        30.04F

$$
WYZ014>020-022>026-101>103-250100-
CENTRAL WYOMING

CITY           SKY/WX    TMP DP  RH WIND       PRES   REMARKS
BIG PINEY      FAIR      46  32  58 S9        30.12F
6HR MIN TEMP:  37; 6HR MAX TEMP:  46;

PINEDALE       FAIR      43  23  45 NE7       30.14F
DUBOIS         FAIR      43  23  45 NW20      30.04F
LANDER         FAIR      56  31  38 SE3       29.99F
6HR MIN TEMP:  51; 6HR MAX TEMP:  58;

RIVERTON       FAIR      56  25  30 S5        30.00F
6HR MIN TEMP:  47; 6HR MAX TEMP:  57;

CASPER         FAIR      56  22  26 SW13      30.03F
6HR MIN TEMP:  49; 6HR MAX TEMP:  58;

DOUGLAS        FAIR      56  22  26 S7        30.06F
6HR MIN TEMP:  51; 6HR MAX TEMP:  59;


$$
WYZ021-027>030-104>119-250100-
SOUTHERN WYOMING

CITY           SKY/WX    TMP DP  RH WIND       PRES   REMARKS
EVANSTON       FAIR      50  24  36 W15       30.11F
6HR MIN TEMP:  38; 6HR MAX TEMP:  52;

KEMMERER         N/A     43  30  61 NW7       30.13F
FORT BRIDGER   FAIR      54  28  36 CALM      30.14F
ROCK SPRINGS   FAIR      52  26  36 SW9       30.11F
6HR MIN TEMP:  42; 6HR MAX TEMP:  52;

DIXON            N/A     54  20  26 W8        30.14F
RAWLINS        FAIR      52  19  27 W8        30.10F
6HR MIN TEMP:  44; 6HR MAX TEMP:  53;

SARATOGA       FAIR      52  19  28 W8        30.12F
LARAMIE        FAIR      49  19  30 N9        30.11S
6HR MIN TEMP:  39; 6HR MAX TEMP:  50;

CHEYENNE       FAIR      50  20  30 NE13      30.11S
6HR MIN TEMP:  44; 6HR MAX TEMP:  51;

TORRINGTON     FAIR      59  16  18 VRB3      30.06F
6HR MIN TEMP:  54; 6HR MAX TEMP:  61;

PINE BLUFFS    FAIR      52  27  37 NE10      30.12R

$$




USA.gov is the U.S. government's official web portal to all federal, state and local government web resources and services.